Location: Zagreb
(45.8000°N, 16.0000°E)
Time: 14:04:29
(UTC+02:00)

Vanguard 1 - Pass Details

Date: 09 August 2022
Orbit: 649 x 3832 km, 34.2° (Epoch: 25 September)

Event Time Altitude Azimuth Distance (km) Brightness Sun altitude
Rises 03:03:45 0° 187° (S) 5,534 - -22.4°
Reaches altitude 10° 03:08:15 10° 173° (S) 5,029 - -22.0°
Exits shadow 03:08:49 11° 171° (S) 4,985 13.2 -21.9°
Maximum altitude 03:18:52 22° 129° (SE) 5,033 13.6 -20.9°
Drops below altitude 10° 03:32:43 10° 89° (E) 6,770 14.8 -19.5°
Sets 03:40:16 0° 78° (ENE) 7,967 15.6 -18.7°
